Погода в Чинхойи

Зимбабве     17°21′34″S   30°11′46″E
темп.,
°C
ветер,
м/с
пор.,
м/с
влажн.,
%
обл.,
%
осадки,
мм/ч
давл.,
гПа
погр.,
м
11 апреля, вс
вс1123:00+15в11630 0.0 101814
02:00+13в11760 0.0 101812
05:00+12юв11840 0.0 101912
08:00+19вюв24590 0.0 1020318
11:00+26в24310 0.0 10172004
14:00+28всв34263 0.0 10142774
17:00+25в363716 0.0 1014337
20:00+18ссв22650 0.0 101832
12 апреля, пн
пн1223:00+16в11750 0.0 101911
02:00+15всв12810 0.0 101917
05:00+14всв11930 0.0 102011
08:00+19в12690 0.0 1021301
11:00+27всв24380 0.0 10191878
14:00+28св333399 0.0 10152465
17:00+23с49571 0.0 1016414
20:00+17ююв11770 0.0 102012
13 апреля, вт
вт1323:00+16в22800 0.0 102038
02:00+14в11930 0.0 102012
05:00+13юв11945 0.0 102011
08:00+19вюв25535 0.0 1021381
11:00+26св23344 0.0 10191477
14:00+29ссв233025 0.0 10152489
17:00+25всв253777 0.0 1015173
20:00+18ссв116419 0.0 101812
14 апреля, ср
ср1423:00+17в1169100 0.0 102012
02:00+15в1175100 0.0 101911
05:00+14юв1179100 0.0 101911
08:00+19в245374 0.0 1020312
11:00+26в4723100 0.0 10181805
14:00+28в452180 0.0 10152427
17:00+25св3730100 0.0 1014338
20:00+17в225296 0.0 101712
15 апреля, чт
чт1523:00+16св116199 0.0 101911
02:00+14в116624 0.0 101811
05:00+14юв1173100 0.0 101911
08:00+19вюв135810 0.0 1019304
11:00+27всв252792 0.0 10172027
14:00+29в3419100 0.0 10132788
17:00+25св3729100 0.0 1013283
20:00+17св0164100 0.0 101811